TimeMST,TemperatureF,Dew PointF,Humidity,Sea Level PressureIn,VisibilityMPH,Wind Direction,Wind SpeedMPH,Gust SpeedMPH,PrecipitationIn,Events,Conditions,WindDirDegrees,DateUTC
11:35 AM,8.6,-5.8,52,30.25,10.0,ESE,17.3,-,N/A,,Clear,110,2013-02-19 18:35:00
11:55 AM,8.6,-5.8,52,30.24,10.0,ESE,12.7,-,N/A,,Clear,110,2013-02-19 18:55:00
12:15 PM,8.6,-5.8,52,30.23,10.0,ESE,17.3,20.7,N/A,,Clear,110,2013-02-19 19:15:00
12:35 PM,10.4,-4.0,52,30.23,10.0,ESE,13.8,19.6,N/A,,Clear,110,2013-02-19 19:35:00
12:55 PM,10.4,-4.0,52,30.23,10.0,SE,15.0,-,N/A,,Clear,130,2013-02-19 19:55:00
1:15 PM,10.4,-2.2,57,30.21,10.0,East,15.0,20.7,N/A,,Clear,100,2013-02-19 20:15:00
1:35 PM,10.4,-2.2,57,30.20,10.0,ESE,17.3,-,N/A,,Clear,110,2013-02-19 20:35:00
1:55 PM,10.4,-0.4,62,30.19,10.0,East,15.0,20.7,N/A,,Clear,100,2013-02-19 20:55:00
2:15 PM,12.2,-0.4,57,30.19,10.0,East,13.8,-,N/A,,Clear,100,2013-02-19 21:15:00
2:35 PM,12.2,-0.4,57,30.19,10.0,ESE,12.7,-,N/A,,Clear,110,2013-02-19 21:35:00
2:55 PM,12.2,1.4,62,30.18,10.0,ESE,15.0,-,N/A,,Clear,120,2013-02-19 21:55:00
3:35 PM,12.2,-0.4,57,30.17,10.0,ESE,15.0,-,N/A,,Clear,110,2013-02-19 22:35:00
4:15 PM,10.4,-2.2,57,30.16,10.0,East,16.1,-,N/A,,Clear,100,2013-02-19 23:15:00
5:35 PM,10.4,-2.2,57,30.15,10.0,East,12.7,-,N/A,,Clear,100,2013-02-20 00:35:00
6:15 PM,8.6,-0.4,67,30.15,10.0,ESE,13.8,-,N/A,,Clear,110,2013-02-20 01:15:00
6:35 PM,8.6,-0.4,67,30.16,10.0,ESE,15.0,-,N/A,,Clear,120,2013-02-20 01:35:00
6:55 PM,8.6,-2.2,62,30.16,10.0,ESE,17.3,-,N/A,,Clear,110,2013-02-20 01:55:00
7:15 PM,8.6,-2.2,62,30.16,10.0,ESE,9.2,-,N/A,,Clear,110,2013-02-20 02:15:00
7:35 PM,8.6,-2.2,62,30.15,10.0,ESE,10.4,-,N/A,,Clear,120,2013-02-20 02:35:00
8:35 PM,8.6,-0.4,67,30.13,10.0,ESE,12.7,-,N/A,,Clear,110,2013-02-20 03:35:00
8:55 PM,8.6,-0.4,67,30.14,10.0,ESE,11.5,-,N/A,,Clear,110,2013-02-20 03:55:00
9:15 PM,6.8,-0.4,72,30.13,10.0,ESE,13.8,-,N/A,,Clear,110,2013-02-20 04:15:00
9:35 PM,6.8,-0.4,72,30.13,10.0,ESE,11.5,-,N/A,,Clear,110,2013-02-20 04:35:00
9:55 PM,6.8,-0.4,72,30.11,10.0,ESE,15.0,-,N/A,,Clear,110,2013-02-20 04:55:00
10:15 PM,6.8,-0.4,72,30.12,10.0,ESE,11.5,-,N/A,,Clear,110,2013-02-20 05:15:00
10:35 PM,6.8,-2.2,67,30.12,10.0,ESE,12.7,-,N/A,,Clear,120,2013-02-20 05:35:00
10:55 PM,6.8,-0.4,72,30.11,10.0,ESE,13.8,-,N/A,,Clear,120,2013-02-20 05:55:00
11:15 PM,6.8,-0.4,72,30.11,10.0,ESE,11.5,-,N/A,,Clear,120,2013-02-20 06:15:00
11:35 PM,6.8,-0.4,72,30.10,10.0,ESE,12.7,-,N/A,,Partly Cloudy,120,2013-02-20 06:35:00
11:55 PM,6.8,-2.2,67,30.10,10.0,SE,13.8,-,N/A,,Partly Cloudy,130,2013-02-20 06:55:00